Year,Month,Day,Hour,Minute,Value (Times are PST for temperature in C)
2015,06,28,00,00,16.70
2015,06,28,00,01,16.70
2015,06,28,00,02,16.70
2015,06,28,00,03,16.70
2015,06,28,00,04,16.70
2015,06,28,00,05,16.60
2015,06,28,00,06,16.60
2015,06,28,00,07,16.60
2015,06,28,00,08,16.60
2015,06,28,00,09,16.50
2015,06,28,00,10,16.50
2015,06,28,00,11,16.50
2015,06,28,00,12,16.50
2015,06,28,00,13,16.50
2015,06,28,00,14,16.50
2015,06,28,00,15,16.50
2015,06,28,00,16,16.50
2015,06,28,00,17,16.40
2015,06,28,00,18,16.40
2015,06,28,00,19,16.40
2015,06,28,00,20,16.30
2015,06,28,00,21,16.30
2015,06,28,00,22,16.20
2015,06,28,00,23,16.20
2015,06,28,00,24,16.20
2015,06,28,00,25,16.10
2015,06,28,00,26,16.10
2015,06,28,00,27,16.10
2015,06,28,00,28,16.10
2015,06,28,00,29,16.10
2015,06,28,00,30,16.10
2015,06,28,00,31,16.00
2015,06,28,00,32,16.00
2015,06,28,00,33,16.00
2015,06,28,00,34,16.00
2015,06,28,00,35,15.90
2015,06,28,00,36,15.90
2015,06,28,00,37,15.90
2015,06,28,00,38,15.90
2015,06,28,00,39,15.90
2015,06,28,00,40,15.90
2015,06,28,00,41,15.90
2015,06,28,00,42,15.90
2015,06,28,00,43,15.90
2015,06,28,00,44,15.90
2015,06,28,00,45,15.80
2015,06,28,00,46,15.80
2015,06,28,00,47,15.80
2015,06,28,00,48,15.80
2015,06,28,00,49,15.80
2015,06,28,00,50,15.80
2015,06,28,00,51,15.80
2015,06,28,00,52,15.80
2015,06,28,00,53,15.80
2015,06,28,00,54,15.80
2015,06,28,00,55,15.80
2015,06,28,00,56,15.80
2015,06,28,00,57,15.70
2015,06,28,00,58,15.70
2015,06,28,00,59,15.60
2015,06,28,01,00,15.60
2015,06,28,01,01,15.50
2015,06,28,01,02,15.50
2015,06,28,01,03,15.40
2015,06,28,01,04,15.40
2015,06,28,01,05,15.40
2015,06,28,01,06,15.40
2015,06,28,01,07,15.40
2015,06,28,01,08,15.30
2015,06,28,01,09,15.30
2015,06,28,01,10,15.30
2015,06,28,01,11,15.30
2015,06,28,01,12,15.30
2015,06,28,01,13,15.30
2015,06,28,01,14,15.30
2015,06,28,01,15,15.30
2015,06,28,01,16,15.30
2015,06,28,01,17,15.30
2015,06,28,01,18,15.30
2015,06,28,01,19,15.30
2015,06,28,01,20,15.30
2015,06,28,01,21,15.30
2015,06,28,01,22,15.30
2015,06,28,01,23,15.30
2015,06,28,01,24,15.40
2015,06,28,01,25,15.30
2015,06,28,01,26,15.30
2015,06,28,01,27,15.30
2015,06,28,01,28,15.30
2015,06,28,01,29,15.30
2015,06,28,01,30,15.40
2015,06,28,01,31,15.40
2015,06,28,01,32,15.40
2015,06,28,01,33,15.40
2015,06,28,01,34,15.40
2015,06,28,01,35,15.40
2015,06,28,01,36,15.40
2015,06,28,01,37,15.40
2015,06,28,01,38,15.40
2015,06,28,01,39,15.40
2015,06,28,01,40,15.50
2015,06,28,01,41,15.50
2015,06,28,01,42,15.50
2015,06,28,01,43,15.50
2015,06,28,01,44,15.50
2015,06,28,01,45,15.50
2015,06,28,01,46,15.50
2015,06,28,01,47,15.50
2015,06,28,01,48,15.60
2015,06,28,01,49,15.60
2015,06,28,01,50,15.60
2015,06,28,01,51,15.70
2015,06,28,01,52,15.70
2015,06,28,01,53,15.70
2015,06,28,01,54,15.70
2015,06,28,01,55,15.70
2015,06,28,01,56,15.70
2015,06,28,01,57,15.70
2015,06,28,01,58,15.70
2015,06,28,01,59,15.70
2015,06,28,02,00,15.70
2015,06,28,02,01,15.80
2015,06,28,02,02,15.80
2015,06,28,02,03,15.80
2015,06,28,02,04,15.80
2015,06,28,02,05,15.80
2015,06,28,02,06,15.80
2015,06,28,02,07,15.80
2015,06,28,02,08,15.80
2015,06,28,02,09,15.80
2015,06,28,02,10,15.80
2015,06,28,02,11,15.80
2015,06,28,02,12,15.80
2015,06,28,02,13,15.80
2015,06,28,02,14,15.80
2015,06,28,02,15,15.70
2015,06,28,02,16,15.70
2015,06,28,02,17,15.70
2015,06,28,02,18,15.60
2015,06,28,02,19,15.60
2015,06,28,02,20,15.50
2015,06,28,02,21,15.40
2015,06,28,02,22,15.40
2015,06,28,02,23,15.40
2015,06,28,02,24,15.30
2015,06,28,02,25,15.30
2015,06,28,02,26,15.20
2015,06,28,02,27,15.20
2015,06,28,02,28,15.20
2015,06,28,02,29,15.10
2015,06,28,02,30,15.10
2015,06,28,02,31,15.10
2015,06,28,02,32,15.10
2015,06,28,02,33,15.00
2015,06,28,02,34,15.00
2015,06,28,02,35,15.00
2015,06,28,02,36,14.90
2015,06,28,02,37,14.90
2015,06,28,02,38,14.90
2015,06,28,02,39,14.90
2015,06,28,02,40,14.90
2015,06,28,02,41,14.90
2015,06,28,02,42,14.90
2015,06,28,02,43,15.00
2015,06,28,02,44,15.00
2015,06,28,02,45,15.00
2015,06,28,02,46,15.00
2015,06,28,02,47,15.00
2015,06,28,02,48,15.00
2015,06,28,02,49,15.00
2015,06,28,02,50,15.00
2015,06,28,02,51,15.00
2015,06,28,02,52,14.90
2015,06,28,02,53,14.90
2015,06,28,02,54,14.90
2015,06,28,02,55,14.90
2015,06,28,02,56,14.90
2015,06,28,02,57,14.90
2015,06,28,02,58,14.90
2015,06,28,02,59,15.00
2015,06,28,03,00,15.00
2015,06,28,03,01,15.00
2015,06,28,03,02,15.00
2015,06,28,03,03,15.00
2015,06,28,03,04,15.10
2015,06,28,03,05,15.10
2015,06,28,03,06,15.10
2015,06,28,03,07,15.10
2015,06,28,03,08,15.10
2015,06,28,03,09,15.10
2015,06,28,03,10,15.10
2015,06,28,03,11,15.10
2015,06,28,03,12,15.10
2015,06,28,03,13,15.10
2015,06,28,03,14,15.10
2015,06,28,03,15,15.10
2015,06,28,03,16,15.10
2015,06,28,03,17,15.10
2015,06,28,03,18,15.10
2015,06,28,03,19,15.10
2015,06,28,03,20,15.10
2015,06,28,03,21,15.10
2015,06,28,03,22,15.10
2015,06,28,03,23,15.10
2015,06,28,03,24,15.10
2015,06,28,03,25,15.10
2015,06,28,03,26,15.10
2015,06,28,03,27,15.10
2015,06,28,03,28,15.10
2015,06,28,03,29,15.10
2015,06,28,03,30,15.00
2015,06,28,03,31,15.10
2015,06,28,03,32,15.10
2015,06,28,03,33,15.10
2015,06,28,03,34,15.10
2015,06,28,03,35,15.10
2015,06,28,03,36,15.10
2015,06,28,03,37,15.10
2015,06,28,03,38,15.10
2015,06,28,03,39,15.10
2015,06,28,03,40,15.10
2015,06,28,03,41,15.10
2015,06,28,03,42,15.10
2015,06,28,03,43,15.00
2015,06,28,03,44,15.00
2015,06,28,03,45,15.00
2015,06,28,03,46,15.00
2015,06,28,03,47,15.00
2015,06,28,03,48,15.00
2015,06,28,03,49,15.00
2015,06,28,03,50,15.00
2015,06,28,03,51,15.00
2015,06,28,03,52,15.00
2015,06,28,03,53,15.00
2015,06,28,03,54,15.00
2015,06,28,03,55,15.00
2015,06,28,03,56,15.00
2015,06,28,03,57,14.90
2015,06,28,03,58,14.90
2015,06,28,03,59,14.90
2015,06,28,04,00,14.90
2015,06,28,04,01,14.90
2015,06,28,04,02,14.90
2015,06,28,04,03,14.90
2015,06,28,04,04,14.90
2015,06,28,04,05,14.90
2015,06,28,04,06,14.90
2015,06,28,04,07,14.90
2015,06,28,04,08,14.90
2015,06,28,04,09,14.90
2015,06,28,04,10,14.90
2015,06,28,04,11,14.90
2015,06,28,04,12,14.90
2015,06,28,04,13,14.90
2015,06,28,04,14,14.90
2015,06,28,04,15,14.90
2015,06,28,04,16,14.90
2015,06,28,04,17,14.90
2015,06,28,04,18,14.90
2015,06,28,04,19,14.90
2015,06,28,04,20,14.90
2015,06,28,04,21,14.90
2015,06,28,04,22,14.90
2015,06,28,04,23,15.00
2015,06,28,04,24,14.90
2015,06,28,04,25,15.00
2015,06,28,04,26,15.00
2015,06,28,04,27,15.00
2015,06,28,04,28,15.00
2015,06,28,04,29,15.00
2015,06,28,04,30,15.00
2015,06,28,04,31,15.00
2015,06,28,04,32,15.00
2015,06,28,04,33,15.00
2015,06,28,04,34,15.10
2015,06,28,04,35,15.00
2015,06,28,04,36,15.00
2015,06,28,04,37,15.00
2015,06,28,04,38,15.00
2015,06,28,04,39,15.00
2015,06,28,04,40,15.00
2015,06,28,04,41,15.00
2015,06,28,04,42,15.00
2015,06,28,04,43,15.00
2015,06,28,04,44,15.00
2015,06,28,04,45,15.10
2015,06,28,04,46,15.10
2015,06,28,04,47,15.00
2015,06,28,04,48,15.00
2015,06,28,04,49,14.90
2015,06,28,04,50,14.90
2015,06,28,04,51,14.90
2015,06,28,04,52,14.80
2015,06,28,04,53,14.80
2015,06,28,04,54,14.80
2015,06,28,04,55,14.70
2015,06,28,04,56,14.70
2015,06,28,04,57,14.70
2015,06,28,04,58,14.60
2015,06,28,04,59,14.60
2015,06,28,05,00,14.60
2015,06,28,05,01,14.60
2015,06,28,05,02,14.50
2015,06,28,05,03,14.50
2015,06,28,05,04,14.50
2015,06,28,05,05,14.50
2015,06,28,05,06,14.50
2015,06,28,05,07,14.50
2015,06,28,05,08,14.50
2015,06,28,05,09,14.50
2015,06,28,05,10,14.50
2015,06,28,05,11,14.50
2015,06,28,05,12,14.50
2015,06,28,05,13,14.50
2015,06,28,05,14,14.50
2015,06,28,05,15,14.50
2015,06,28,05,16,14.50
2015,06,28,05,17,14.50
2015,06,28,05,18,14.50
2015,06,28,05,19,14.50
2015,06,28,05,20,14.50
2015,06,28,05,21,14.50
2015,06,28,05,22,14.50
2015,06,28,05,23,14.40
2015,06,28,05,24,14.40
2015,06,28,05,25,14.40
2015,06,28,05,26,14.40
2015,06,28,05,27,14.40
2015,06,28,05,28,14.40
2015,06,28,05,29,14.40
2015,06,28,05,30,14.50
2015,06,28,05,31,14.40
2015,06,28,05,32,14.40
2015,06,28,05,33,14.50
2015,06,28,05,34,14.50
2015,06,28,05,35,14.50
2015,06,28,05,36,14.50
2015,06,28,05,37,14.50
2015,06,28,05,38,14.50
2015,06,28,05,39,14.50
2015,06,28,05,40,14.50
2015,06,28,05,41,14.50
2015,06,28,05,42,14.50
2015,06,28,05,43,14.50
2015,06,28,05,44,14.50
2015,06,28,05,45,14.50
2015,06,28,05,46,14.60
2015,06,28,05,47,14.60
2015,06,28,05,48,14.60
2015,06,28,05,49,14.60
2015,06,28,05,50,14.60
2015,06,28,05,51,14.60
2015,06,28,05,52,14.60
2015,06,28,05,53,14.60
2015,06,28,05,54,14.70
2015,06,28,05,55,14.70
2015,06,28,05,56,14.70
2015,06,28,05,57,14.70
2015,06,28,05,58,14.70
2015,06,28,05,59,14.80
2015,06,28,06,00,14.80
2015,06,28,06,01,14.80
2015,06,28,06,02,14.80
2015,06,28,06,03,14.90
2015,06,28,06,04,14.90
2015,06,28,06,05,15.00
2015,06,28,06,06,15.00
2015,06,28,06,07,15.00
2015,06,28,06,08,15.10
2015,06,28,06,09,15.10
2015,06,28,06,10,15.10
2015,06,28,06,11,15.20
2015,06,28,06,12,15.20
2015,06,28,06,13,15.20
2015,06,28,06,14,15.30
2015,06,28,06,15,15.30
2015,06,28,06,16,15.30
2015,06,28,06,17,15.40
2015,06,28,06,18,15.40
2015,06,28,06,19,15.50
2015,06,28,06,20,15.50
2015,06,28,06,21,15.50
2015,06,28,06,22,15.60
2015,06,28,06,23,15.60
2015,06,28,06,24,15.60
2015,06,28,06,25,15.60
2015,06,28,06,26,15.70
2015,06,28,06,27,15.70
2015,06,28,06,28,15.70
2015,06,28,06,29,15.80
2015,06,28,06,30,15.80
2015,06,28,06,31,15.90
2015,06,28,06,32,15.90
2015,06,28,06,33,16.00
2015,06,28,06,34,16.00
2015,06,28,06,35,16.10
2015,06,28,06,36,16.10
2015,06,28,06,37,16.20
2015,06,28,06,38,16.30
2015,06,28,06,39,16.30
2015,06,28,06,40,16.40
2015,06,28,06,41,16.50
2015,06,28,06,42,16.70
2015,06,28,06,43,16.80
2015,06,28,06,44,17.00
2015,06,28,06,45,17.00
2015,06,28,06,46,17.00
2015,06,28,06,47,17.00
2015,06,28,06,48,16.90
2015,06,28,06,49,16.90
2015,06,28,06,50,16.80
2015,06,28,06,51,16.70
2015,06,28,06,52,16.60
2015,06,28,06,53,16.50
2015,06,28,06,54,16.40
2015,06,28,06,55,16.40
2015,06,28,06,56,16.30
2015,06,28,06,57,16.30
2015,06,28,06,58,16.20
2015,06,28,06,59,16.20
2015,06,28,07,00,16.20
2015,06,28,07,01,16.10
2015,06,28,07,02,16.10
2015,06,28,07,03,16.00
2015,06,28,07,04,15.90
2015,06,28,07,05,15.90
2015,06,28,07,06,15.90
2015,06,28,07,07,15.90
2015,06,28,07,08,15.80
2015,06,28,07,09,15.80
2015,06,28,07,10,15.80
2015,06,28,07,11,15.80
2015,06,28,07,12,15.80
2015,06,28,07,13,15.80
2015,06,28,07,14,15.80
2015,06,28,07,15,15.80
2015,06,28,07,16,15.80
2015,06,28,07,17,15.80
2015,06,28,07,18,15.80
2015,06,28,07,19,15.90
2015,06,28,07,20,15.90
2015,06,28,07,21,15.90
2015,06,28,07,22,16.00
2015,06,28,07,23,16.00
2015,06,28,07,24,16.10
2015,06,28,07,25,16.20
2015,06,28,07,26,16.20
2015,06,28,07,27,16.30
2015,06,28,07,28,16.30
2015,06,28,07,29,16.30
2015,06,28,07,30,16.30
2015,06,28,07,31,16.40
2015,06,28,07,32,16.40
2015,06,28,07,33,16.50
2015,06,28,07,34,16.60
2015,06,28,07,35,16.60
2015,06,28,07,36,16.70
2015,06,28,07,37,16.80
2015,06,28,07,38,16.90
2015,06,28,07,39,17.00
2015,06,28,07,40,17.10
2015,06,28,07,41,17.30
2015,06,28,07,42,17.30
2015,06,28,07,43,17.30
2015,06,28,07,44,17.30
2015,06,28,07,45,17.30
2015,06,28,07,46,17.20
2015,06,28,07,47,17.20
2015,06,28,07,48,17.20
2015,06,28,07,49,17.30
2015,06,28,07,50,17.30
2015,06,28,07,51,17.30
2015,06,28,07,52,17.30
2015,06,28,07,53,17.40
2015,06,28,07,54,17.40
2015,06,28,07,55,17.40
2015,06,28,07,56,17.30
2015,06,28,07,57,17.30
2015,06,28,07,58,17.30
2015,06,28,07,59,17.30
2015,06,28,08,00,17.20
2015,06,28,08,01,17.20
2015,06,28,08,02,17.10
2015,06,28,08,03,17.10
2015,06,28,08,04,17.10
2015,06,28,08,05,17.20
2015,06,28,08,06,17.20
2015,06,28,08,07,17.30
2015,06,28,08,08,17.40
2015,06,28,08,09,17.40
2015,06,28,08,10,17.50
2015,06,28,08,11,17.60
2015,06,28,08,12,17.70
2015,06,28,08,13,17.80
2015,06,28,08,14,17.90
2015,06,28,08,15,18.10
2015,06,28,08,16,18.20
2015,06,28,08,17,18.30
2015,06,28,08,18,18.50
2015,06,28,08,19,18.80
2015,06,28,08,20,19.20
2015,06,28,08,21,19.50
2015,06,28,08,22,19.90
2015,06,28,08,23,20.30
2015,06,28,08,24,20.60
2015,06,28,08,25,20.90
2015,06,28,08,26,21.20
2015,06,28,08,27,21.40
2015,06,28,08,28,21.70
2015,06,28,08,29,21.90
2015,06,28,08,30,22.10
2015,06,28,08,31,22.20
2015,06,28,08,32,22.30
2015,06,28,08,33,22.40
2015,06,28,08,34,22.50
2015,06,28,08,35,22.60
2015,06,28,08,36,22.60
2015,06,28,08,37,22.70
2015,06,28,08,38,22.80
2015,06,28,08,39,22.80
2015,06,28,08,40,22.90
2015,06,28,08,41,22.90
2015,06,28,08,42,23.00
2015,06,28,08,43,23.10
2015,06,28,08,44,23.10
2015,06,28,08,45,23.20
2015,06,28,08,46,23.20
2015,06,28,08,47,23.30
2015,06,28,08,48,23.30
2015,06,28,08,49,23.40
2015,06,28,08,50,23.40
2015,06,28,08,51,23.50
2015,06,28,08,52,23.50
2015,06,28,08,53,23.60
2015,06,28,08,54,23.60
2015,06,28,08,55,23.60
2015,06,28,08,56,23.70
2015,06,28,08,57,23.70
2015,06,28,08,58,23.80
2015,06,28,08,59,23.80
2015,06,28,09,00,23.90
2015,06,28,09,01,23.90
2015,06,28,09,02,24.00
2015,06,28,09,03,24.00
2015,06,28,09,04,24.10
2015,06,28,09,05,24.10
2015,06,28,09,06,24.20
2015,06,28,09,07,24.20
2015,06,28,09,08,24.30
2015,06,28,09,09,24.30
2015,06,28,09,10,24.30
2015,06,28,09,11,24.30
2015,06,28,09,12,24.30
2015,06,28,09,13,24.30
2015,06,28,09,14,24.40
2015,06,28,09,15,24.40
2015,06,28,09,16,24.40
2015,06,28,09,17,24.40
2015,06,28,09,18,24.40
2015,06,28,09,19,24.40
2015,06,28,09,20,24.40
2015,06,28,09,21,24.40
2015,06,28,09,22,24.40
2015,06,28,09,23,24.40
2015,06,28,09,24,24.40
2015,06,28,09,25,24.40
2015,06,28,09,26,24.40
2015,06,28,09,27,24.30
2015,06,28,09,28,24.40
2015,06,28,09,29,24.40
2015,06,28,09,30,24.40
2015,06,28,09,31,24.40
2015,06,28,09,32,24.30
2015,06,28,09,33,24.30
2015,06,28,09,34,24.30
2015,06,28,09,35,24.30
2015,06,28,09,36,24.30
2015,06,28,09,37,24.30
2015,06,28,09,38,24.30
2015,06,28,09,39,24.20
2015,06,28,09,40,24.20
2015,06,28,09,41,24.10
2015,06,28,09,42,24.00
2015,06,28,09,43,23.90
2015,06,28,09,44,23.90
2015,06,28,09,45,23.80
2015,06,28,09,46,23.70
2015,06,28,09,47,23.60
2015,06,28,09,48,23.60
2015,06,28,09,49,23.50
2015,06,28,09,50,23.50
2015,06,28,09,51,23.40
2015,06,28,09,52,23.40
2015,06,28,09,53,23.40
2015,06,28,09,54,23.40
2015,06,28,09,55,23.30
2015,06,28,09,56,23.30
2015,06,28,09,57,23.30
2015,06,28,09,58,23.30
2015,06,28,09,59,23.30
2015,06,28,10,00,23.30
2015,06,28,10,01,23.30
2015,06,28,10,02,23.30
2015,06,28,10,03,23.40
2015,06,28,10,04,23.40
2015,06,28,10,05,23.40
2015,06,28,10,06,23.50
2015,06,28,10,07,23.50
2015,06,28,10,08,23.60
2015,06,28,10,09,23.60
2015,06,28,10,10,23.70
2015,06,28,10,11,23.70
2015,06,28,10,12,23.80
2015,06,28,10,13,23.80
2015,06,28,10,14,23.80
2015,06,28,10,15,23.80
2015,06,28,10,16,23.80
2015,06,28,10,17,23.90
2015,06,28,10,18,23.90
2015,06,28,10,19,23.90
2015,06,28,10,20,23.90
2015,06,28,10,21,24.00
2015,06,28,10,22,24.10
2015,06,28,10,23,24.10
2015,06,28,10,24,24.20
2015,06,28,10,25,24.20
2015,06,28,10,26,24.20
2015,06,28,10,27,24.20
2015,06,28,10,28,24.20
2015,06,28,10,29,24.20
2015,06,28,10,30,24.20
2015,06,28,10,31,24.10
2015,06,28,10,32,24.10
2015,06,28,10,33,24.10
2015,06,28,10,34,24.00
2015,06,28,10,35,23.90
2015,06,28,10,36,23.90
2015,06,28,10,37,23.90
2015,06,28,10,38,23.80
2015,06,28,10,39,23.80
2015,06,28,10,40,23.80
2015,06,28,10,41,23.80
2015,06,28,10,42,23.80
2015,06,28,10,43,23.70
2015,06,28,10,44,23.70
2015,06,28,10,45,23.70
2015,06,28,10,46,23.80
2015,06,28,10,47,23.80
2015,06,28,10,48,23.70
2015,06,28,10,49,23.50
2015,06,28,10,50,23.40
2015,06,28,10,51,23.30
2015,06,28,10,52,23.20
2015,06,28,10,53,23.20
2015,06,28,10,54,23.10
2015,06,28,10,55,23.10
2015,06,28,10,56,23.10
2015,06,28,10,57,23.00
2015,06,28,10,58,22.60
2015,06,28,10,59,22.10
2015,06,28,11,00,21.60
2015,06,28,11,01,21.30
2015,06,28,11,02,20.90
2015,06,28,11,03,20.70
2015,06,28,11,04,20.70
2015,06,28,11,05,20.90
2015,06,28,11,06,21.10
2015,06,28,11,07,21.20
2015,06,28,11,08,21.40
2015,06,28,11,09,21.40
2015,06,28,11,10,21.40
2015,06,28,11,11,21.10
2015,06,28,11,12,20.70
2015,06,28,11,13,20.20
2015,06,28,11,14,19.80
2015,06,28,11,15,19.50
2015,06,28,11,16,19.20
2015,06,28,11,17,19.00
2015,06,28,11,18,18.80
2015,06,28,11,19,18.70
2015,06,28,11,20,18.50
2015,06,28,11,21,18.40
2015,06,28,11,22,18.30
2015,06,28,11,23,18.20
2015,06,28,11,24,18.20
2015,06,28,11,25,18.20
2015,06,28,11,26,18.20
2015,06,28,11,27,18.20
2015,06,28,11,28,18.20
2015,06,28,11,29,18.20
2015,06,28,11,30,18.20
2015,06,28,11,31,18.20
2015,06,28,11,32,18.30
2015,06,28,11,33,18.30
2015,06,28,11,34,18.30
2015,06,28,11,35,18.40
2015,06,28,11,36,18.50
2015,06,28,11,37,18.50
2015,06,28,11,38,18.60
2015,06,28,11,39,18.70
2015,06,28,11,40,18.70
2015,06,28,11,41,18.80
2015,06,28,11,42,18.90
2015,06,28,11,43,19.00
2015,06,28,11,44,19.00
2015,06,28,11,45,19.10
2015,06,28,11,46,19.10
2015,06,28,11,47,19.10
2015,06,28,11,48,19.20
2015,06,28,11,49,19.20
2015,06,28,11,50,19.30
2015,06,28,11,51,19.30
2015,06,28,11,52,19.30
2015,06,28,11,53,19.40
2015,06,28,11,54,19.40
2015,06,28,11,55,19.40
2015,06,28,11,56,19.40
2015,06,28,11,57,19.40
2015,06,28,11,58,19.40
2015,06,28,11,59,19.40
2015,06,28,12,00,19.40
2015,06,28,12,01,19.40
2015,06,28,12,02,19.30
2015,06,28,12,03,19.30
2015,06,28,12,04,19.30
2015,06,28,12,05,19.20
2015,06,28,12,06,19.20
2015,06,28,12,07,19.20
2015,06,28,12,08,19.20
2015,06,28,12,09,19.20
2015,06,28,12,10,19.30
2015,06,28,12,11,19.30
2015,06,28,12,12,19.30
2015,06,28,12,13,19.40
2015,06,28,12,14,19.40
2015,06,28,12,15,19.40
2015,06,28,12,16,19.50
2015,06,28,12,17,19.60
2015,06,28,12,18,19.60
2015,06,28,12,19,19.60
2015,06,28,12,20,19.60
2015,06,28,12,21,19.60
2015,06,28,12,22,19.60
2015,06,28,12,23,19.70
2015,06,28,12,24,19.70
2015,06,28,12,25,19.70
2015,06,28,12,26,19.70
2015,06,28,12,27,19.80
2015,06,28,12,28,19.80
2015,06,28,12,29,19.80
2015,06,28,12,30,19.80
2015,06,28,12,31,19.80
2015,06,28,12,32,19.80
2015,06,28,12,33,19.80
2015,06,28,12,34,19.90
2015,06,28,12,35,19.90
2015,06,28,12,36,20.00
2015,06,28,12,37,20.00
2015,06,28,12,38,20.10
2015,06,28,12,39,20.10
2015,06,28,12,40,20.20
2015,06,28,12,41,20.30
2015,06,28,12,42,20.30
2015,06,28,12,43,20.40
2015,06,28,12,44,20.50
2015,06,28,12,45,20.50
2015,06,28,12,46,20.60
2015,06,28,12,47,20.70
2015,06,28,12,48,20.70
2015,06,28,12,49,20.80
2015,06,28,12,50,20.90
2015,06,28,12,51,21.00
2015,06,28,12,52,21.10
2015,06,28,12,53,21.10
2015,06,28,12,54,21.20
2015,06,28,12,55,21.10
2015,06,28,12,56,20.90
2015,06,28,12,57,20.80
2015,06,28,12,58,20.70
2015,06,28,12,59,20.80
2015,06,28,13,00,20.80
2015,06,28,13,01,21.00
2015,06,28,13,02,21.10
2015,06,28,13,03,21.30
2015,06,28,13,04,21.40
2015,06,28,13,05,21.50
2015,06,28,13,06,21.70
2015,06,28,13,07,21.80
2015,06,28,13,08,21.90
2015,06,28,13,09,22.00
2015,06,28,13,10,22.10
2015,06,28,13,11,22.20
2015,06,28,13,12,22.30
2015,06,28,13,13,22.40
2015,06,28,13,14,22.50
2015,06,28,13,15,22.50
2015,06,28,13,16,22.60
2015,06,28,13,17,22.70
2015,06,28,13,18,22.80
2015,06,28,13,19,22.80
2015,06,28,13,20,22.90
2015,06,28,13,21,22.90
2015,06,28,13,22,22.90
2015,06,28,13,23,22.90
2015,06,28,13,24,23.00
2015,06,28,13,25,23.20
2015,06,28,13,26,23.20
2015,06,28,13,27,23.30
2015,06,28,13,28,23.30
2015,06,28,13,29,23.30
2015,06,28,13,30,23.30
2015,06,28,13,31,23.40
2015,06,28,13,32,23.40
2015,06,28,13,33,23.40
2015,06,28,13,34,23.40
2015,06,28,13,35,23.40
2015,06,28,13,36,23.50
2015,06,28,13,37,23.50
2015,06,28,13,38,23.50
2015,06,28,13,39,23.50
2015,06,28,13,40,23.50
2015,06,28,13,41,23.50
2015,06,28,13,42,23.50
2015,06,28,13,43,23.40
2015,06,28,13,44,23.40
2015,06,28,13,45,23.30
2015,06,28,13,46,23.30
2015,06,28,13,47,23.20
2015,06,28,13,48,23.20
2015,06,28,13,49,23.10
2015,06,28,13,50,23.00
2015,06,28,13,51,22.80
2015,06,28,13,52,22.60
2015,06,28,13,53,22.30
2015,06,28,13,54,22.00
2015,06,28,13,55,21.70
2015,06,28,13,56,21.60
2015,06,28,13,57,21.40
2015,06,28,13,58,21.30
2015,06,28,13,59,21.20
2015,06,28,14,00,21.10
2015,06,28,14,01,21.10
2015,06,28,14,02,21.10
2015,06,28,14,03,21.00
2015,06,28,14,04,21.10
2015,06,28,14,05,21.10
2015,06,28,14,06,21.10
2015,06,28,14,07,21.20
2015,06,28,14,08,21.20
2015,06,28,14,09,21.30
2015,06,28,14,10,21.40
2015,06,28,14,11,21.40
2015,06,28,14,12,21.50
2015,06,28,14,13,21.40
2015,06,28,14,14,21.40
2015,06,28,14,15,21.40
2015,06,28,14,16,21.40
2015,06,28,14,17,21.40
2015,06,28,14,18,21.30
2015,06,28,14,19,21.10
2015,06,28,14,20,20.80
2015,06,28,14,21,20.50
2015,06,28,14,22,20.30
2015,06,28,14,23,20.10
2015,06,28,14,24,19.80
2015,06,28,14,25,19.60
2015,06,28,14,26,19.50
2015,06,28,14,27,19.40
2015,06,28,14,28,19.30
2015,06,28,14,29,19.10
2015,06,28,14,30,19.00
2015,06,28,14,31,18.90
2015,06,28,14,32,18.90
2015,06,28,14,33,18.90
2015,06,28,14,34,18.90
2015,06,28,14,35,18.90
2015,06,28,14,36,18.90
2015,06,28,14,37,19.00
2015,06,28,14,38,19.00
2015,06,28,14,39,19.00
2015,06,28,14,40,19.10
2015,06,28,14,41,19.10
2015,06,28,14,42,19.20
2015,06,28,14,43,19.20
2015,06,28,14,44,19.20
2015,06,28,14,45,19.30
2015,06,28,14,46,19.30
2015,06,28,14,47,19.30
2015,06,28,14,48,19.40
2015,06,28,14,49,19.40
2015,06,28,14,50,19.40
2015,06,28,14,51,19.40
2015,06,28,14,52,19.50
2015,06,28,14,53,19.60
2015,06,28,14,54,19.70
2015,06,28,14,55,19.80
2015,06,28,14,56,19.80
2015,06,28,14,57,19.90
2015,06,28,14,58,19.90
2015,06,28,14,59,19.90
2015,06,28,15,00,19.90
2015,06,28,15,01,19.90
2015,06,28,15,02,19.70
2015,06,28,15,03,19.60
2015,06,28,15,04,19.50
2015,06,28,15,05,19.40
2015,06,28,15,06,19.40
2015,06,28,15,07,19.30
2015,06,28,15,08,19.30
2015,06,28,15,09,19.30
2015,06,28,15,10,19.30
2015,06,28,15,11,19.30
2015,06,28,15,12,19.20
2015,06,28,15,13,19.10
2015,06,28,15,14,19.00
2015,06,28,15,15,19.00
2015,06,28,15,16,19.00
2015,06,28,15,17,19.10
2015,06,28,15,18,19.00
2015,06,28,15,19,18.90
2015,06,28,15,20,18.80
2015,06,28,15,21,18.70
2015,06,28,15,22,18.70
2015,06,28,15,23,18.60
2015,06,28,15,24,18.50
2015,06,28,15,25,18.30
2015,06,28,15,26,18.00
2015,06,28,15,27,17.70
2015,06,28,15,28,17.40
2015,06,28,15,29,17.00
2015,06,28,15,30,16.60
2015,06,28,15,31,16.40
2015,06,28,15,32,16.10
2015,06,28,15,33,15.90
2015,06,28,15,34,15.80
2015,06,28,15,35,15.70
2015,06,28,15,36,15.70
2015,06,28,15,37,15.80
2015,06,28,15,38,15.80
2015,06,28,15,39,15.80
2015,06,28,15,40,15.70
2015,06,28,15,41,15.70
2015,06,28,15,42,15.80
2015,06,28,15,43,15.80
2015,06,28,15,44,15.80
2015,06,28,15,45,15.80
2015,06,28,15,46,15.90
2015,06,28,15,47,15.90
2015,06,28,15,48,15.90
2015,06,28,15,49,15.90
2015,06,28,15,50,16.00
2015,06,28,15,51,16.00
2015,06,28,15,52,16.10
2015,06,28,15,53,16.10
2015,06,28,15,54,16.00
2015,06,28,15,55,16.00
2015,06,28,15,56,16.00
2015,06,28,15,57,16.00
2015,06,28,15,58,16.00
2015,06,28,15,59,16.00
2015,06,28,16,00,16.00
2015,06,28,16,01,15.90
2015,06,28,16,02,15.90
2015,06,28,16,03,15.90
2015,06,28,16,04,15.80
2015,06,28,16,05,15.80
2015,06,28,16,06,15.80
2015,06,28,16,07,15.70
2015,06,28,16,08,15.70
2015,06,28,16,09,15.70
2015,06,28,16,10,15.70
2015,06,28,16,11,15.70
2015,06,28,16,12,15.80
2015,06,28,16,13,15.80
2015,06,28,16,14,15.90
2015,06,28,16,15,15.90
2015,06,28,16,16,16.00
2015,06,28,16,17,16.00
2015,06,28,16,18,16.10
2015,06,28,16,19,16.20
2015,06,28,16,20,16.30
2015,06,28,16,21,16.40
2015,06,28,16,22,16.50
2015,06,28,16,23,16.60
2015,06,28,16,24,16.70
2015,06,28,16,25,16.80
2015,06,28,16,26,16.90
2015,06,28,16,27,17.00
2015,06,28,16,28,17.10
2015,06,28,16,29,17.20
2015,06,28,16,30,17.20
2015,06,28,16,31,17.30
2015,06,28,16,32,17.30
2015,06,28,16,33,17.40
2015,06,28,16,34,17.40
2015,06,28,16,35,17.50
2015,06,28,16,36,17.60
2015,06,28,16,37,17.60
2015,06,28,16,38,17.70
2015,06,28,16,39,17.70
2015,06,28,16,40,17.80
2015,06,28,16,41,17.80
2015,06,28,16,42,17.90
2015,06,28,16,43,17.90
2015,06,28,16,44,18.00
2015,06,28,16,45,18.00
2015,06,28,16,46,18.10
2015,06,28,16,47,18.20
2015,06,28,16,48,18.30
2015,06,28,16,49,18.30
2015,06,28,16,50,18.40
2015,06,28,16,51,18.40
2015,06,28,16,52,18.50
2015,06,28,16,53,18.50
2015,06,28,16,54,18.60
2015,06,28,16,55,18.70
2015,06,28,16,56,18.80
2015,06,28,16,57,19.00
2015,06,28,16,58,19.20
2015,06,28,16,59,19.40
2015,06,28,17,00,19.50
2015,06,28,17,01,19.70
2015,06,28,17,02,19.80
2015,06,28,17,03,19.90
2015,06,28,17,04,20.10
2015,06,28,17,05,20.20
2015,06,28,17,06,20.30
2015,06,28,17,07,20.40
2015,06,28,17,08,20.50
2015,06,28,17,09,20.50
2015,06,28,17,10,20.60
2015,06,28,17,11,20.60
2015,06,28,17,12,20.70
2015,06,28,17,13,20.70
2015,06,28,17,14,20.60
2015,06,28,17,15,20.40
2015,06,28,17,16,20.20
2015,06,28,17,17,20.00
2015,06,28,17,18,19.80
2015,06,28,17,19,19.60